Sarasota, FL

2:50 AM EST on February 21, 2018 (GMT -0500)
Sarasota-bradenton

Weather History for KSRQ - February, 2014

Change the Weather History Date:

Monday, February 24, 2014

  Actual Average Record
Temperature  
Mean Temperature 72 °F 64 °F  
Max Temperature 77 °F 74 °F 87 °F (2001)
Min Temperature 67 °F 55 °F 32 °F (1964)
Degree Days  
Heating Degree Days 0 3  
Month to date heating degree days 45 86  
Since 1 July heating degree days 298 406  
Cooling Degree Days 7 2  
Month to date cooling degree days 80 44  
Year to date cooling degree days 111 96  
Growing Degree Days 22 (Base 50)    
Moisture  
Dew Point 66 °F    
Average Humidity 86    
Maximum Humidity 100    
Minimum Humidity 69    
Precipitation  
Precipitation 0.00 in 0.14 in 1.53 in (1990)
Month to date precipitation 1.37 2.12  
Year to date precipitation 3.47 4.61  
Sea Level Pressure  
Sea Level Pressure 30.02 in    
Wind  
Wind Speed 7 mph (South)    
Max Wind Speed 16 mph    
Max Gust Speed 20 mph    
Visibility 10 miles    
Events      
T = Trace of Precipitation, MM = Missing Value Source: NWS Daily Summary

Daily Weather History Graph

Daily Weather History Graph

Search for Another Location

Airport or City:

Trip Planner

Search our weather history database for the weather conditions in past years. The results will help you decide how hot, cold, wet, or windy it might be!

Date:

Astronomy

Feb. 24, 2014 Rise Set
Actual Time 6:59 AM EST 6:27 PM EST
Civil Twilight 6:35 AM EST 6:51 PM EST
Nautical Twilight 6:08 AM EST 7:18 PM EST
Astronomical Twilight 5:41 AM EST 7:45 PM EST
Moon 2:40 AM EST (2/24) 1:43 PM EST (2/24)
Length of Visible Light 12h 15m
Length of Day
11h 28m
Waning Crescent, 28% of the Moon is Illuminated
Feb 24
Waning Crescent
Mar 1
New
Mar 8
First Quarter
Mar 16
Full
Mar 23
Last Quarter

Hourly Weather History & Observations

Time (EST) Temp. Dew Point Humidity Pressure Visibility Wind Dir Wind Speed Gust Speed Precip Events Conditions
12:37 AM 69.1 °F 66.0 °F 90% 30.06 in 10.0 mi Calm Calm - N/A   Mostly Cloudy
12:53 AM 69.1 °F 66.0 °F 90% 30.05 in 10.0 mi Calm Calm - N/A   Mostly Cloudy
1:53 AM 68.0 °F 66.0 °F 93% 30.03 in 10.0 mi ESE 3.5 mph - N/A   Mostly Cloudy
2:07 AM 66.9 °F 64.9 °F 93% 30.02 in 10.0 mi SE 4.6 mph - N/A   Scattered Clouds
2:49 AM 66.2 °F 64.4 °F 94% 29.97 in 10.0 mi SSE 10.4 mph - N/A   Partly Cloudy
2:53 AM 66.9 °F 66.0 °F 97% 29.97 in 10.0 mi SSE 10.4 mph - N/A   Partly Cloudy
3:53 AM 68.0 °F 64.9 °F 90% 29.94 in 10.0 mi South 12.7 mph - N/A   Scattered Clouds
4:53 AM 69.1 °F 66.0 °F 90% 29.93 in 10.0 mi South 11.5 mph - N/A   Clear
5:53 AM 69.1 °F 66.0 °F 90% 29.97 in 10.0 mi South 6.9 mph - N/A   Partly Cloudy
6:53 AM 69.1 °F 66.0 °F 90% 29.99 in 10.0 mi ESE 6.9 mph - N/A   Mostly Cloudy
7:10 AM 69.1 °F 66.0 °F 90% 30.01 in 10.0 mi North 6.9 mph - N/A   Mostly Cloudy
7:28 AM 68.0 °F 66.0 °F 93% 30.01 in 9.0 mi NE 8.1 mph - N/A   Overcast
7:35 AM 68.0 °F 66.0 °F 93% 30.01 in 10.0 mi ENE 4.6 mph - N/A   Mostly Cloudy
7:44 AM 68.0 °F 64.9 °F 90% 30.01 in 10.0 mi ENE 6.9 mph - N/A   Mostly Cloudy
7:53 AM 68.0 °F 64.9 °F 90% 30.01 in 10.0 mi ESE 5.8 mph - N/A   Mostly Cloudy
8:44 AM 69.1 °F 64.9 °F 87% 30.03 in 10.0 mi East 5.8 mph - N/A   Overcast
8:53 AM 70.0 °F 66.0 °F 87% 30.04 in 10.0 mi East 6.9 mph - N/A   Mostly Cloudy
9:53 AM 73.0 °F 66.0 °F 79% 30.06 in 10.0 mi Variable 3.5 mph - N/A   Scattered Clouds
10:53 AM 75.9 °F 66.0 °F 71% 30.05 in 10.0 mi SW 5.8 mph - N/A   Partly Cloudy
11:53 AM 77.0 °F 66.9 °F 71% 30.05 in 10.0 mi SW 9.2 mph - N/A   Clear
12:53 PM 75.9 °F 66.0 °F 71% 30.02 in 10.0 mi WSW 10.4 mph - N/A   Scattered Clouds
1:53 PM 75.0 °F 66.0 °F 73% 30.00 in 10.0 mi West 9.2 mph - N/A   Partly Cloudy
2:53 PM 75.9 °F 66.0 °F 71% 30.00 in 10.0 mi West 12.7 mph - N/A   Clear
3:53 PM 73.9 °F 66.0 °F 76% 30.00 in 10.0 mi West 9.2 mph - N/A   Clear
4:53 PM 73.9 °F 64.9 °F 73% 30.00 in 10.0 mi West 11.5 mph - N/A   Clear
5:53 PM 72.0 °F 66.0 °F 81% 30.02 in 10.0 mi WNW 10.4 mph - N/A   Partly Cloudy
6:53 PM 70.0 °F 64.9 °F 84% 30.03 in 10.0 mi WNW 6.9 mph - N/A   Clear
7:53 PM 69.1 °F 64.9 °F 87% 30.05 in 10.0 mi WNW 5.8 mph - N/A   Clear
8:53 PM 68.0 °F 66.0 °F 93% 30.05 in 10.0 mi NNW 4.6 mph - N/A   Clear
9:53 PM 66.9 °F 64.9 °F 93% 30.07 in 10.0 mi Calm Calm - N/A   Clear
10:53 PM 66.9 °F 64.9 °F 93% 30.06 in 10.0 mi Calm Calm - N/A   Clear
11:53 PM 66.9 °F 64.0 °F 90% 30.06 in 10.0 mi Calm Calm - N/A   Clear